Location: Charlotte
(35.2269°N, 80.8433°W)
Time: 16:14:28
(UTC-05:00)

ISS - Visible Passes

Search period start: 08 February 2016 00:00
Search period end: 18 February 2016 00:00
Orbit: 399 x 408 km, 51.6° (Epoch: 08 February)

Date Brightness Start Highest point End Pass type
(mag) Time Alt. Az. Time Alt. Az. Time Alt. Az.
15 Feb -0.9 19:10:05 10° N 19:11:10 11° NNE 19:11:11 11° NNE visible
16 Feb -1.2 19:52:21 10° NNW 19:53:37 20° NNW 19:53:37 20° NNW visible
17 Feb -1.7 19:00:03 10° NNW 19:02:33 20° NNE 19:03:30 18° NE visible
17 Feb 0.2 20:36:05 10° WNW 20:36:10 11° WNW 20:36:10 11° WNW visible
